Location: Columbus
(29.5618°N, 96.6770°W)
Time: 17:01:24
(UTC-06:00)

Iridium 59 - Visible Passes

Search period start: 28 February 2015 00:00
Search period end: 10 March 2015 01:00
Orbit: 776 x 779 km, 86.4° (Epoch: 28 February)

Date Brightness Start Highest point End Pass type
(mag) Time Alt. Az. Time Alt. Az. Time Alt. Az.
28 Feb 5.1 20:17:47 10° N 20:23:00 77° W 20:28:12 10° S visible
01 Mar 5.1 19:44:23 10° N 19:49:28 52° E 19:54:33 10° SSE visible
01 Mar 7.9 21:27:34 10° WNW 21:29:48 12° W 21:31:41 10° WSW visible
02 Mar 5.9 19:11:32 10° NNE 19:15:48 26° E 19:20:10 10° SE visible
02 Mar 7.1 20:52:12 10° NNW 20:56:27 25° W 21:00:34 10° SW visible
03 Mar 5.8 20:18:01 10° NNW 20:23:04 50° W 20:28:03 10° SSW visible
04 Mar 4.9 19:44:22 10° N 19:49:35 81° E 19:54:48 10° S visible
05 Mar 5.4 19:11:10 10° NNE 19:16:00 39° E 19:20:53 10° SSE visible
05 Mar 7.7 20:53:08 10° NW 20:56:28 17° W 20:59:31 10° WSW visible
06 Mar 6.7 20:18:26 10° NNW 20:23:05 33° W 20:27:39 10° SSW visible
07 Mar 5.4 19:44:29 10° N 19:49:40 67° W 19:54:49 10° S visible
08 Mar 5.0 20:11:00 10° N 20:16:10 61° E 20:21:18 10° SSE visible
08 Mar 8.3 21:55:22 10° WNW 21:56:26 10° W 21:57:05 10° W visible
09 Mar 7.5 21:19:06 10° NW 21:23:06 22° W 21:26:55 10° SW visible
